[[{"header":{"parameterUnit":"m.s-1","parameterCategory":1,"la1":30.2991,"la2":30.254,"lo1":-89.0895,"lo2":-89.0444,"dy":0.0017,"dx":0.0017,"nx":28,"ny":28,"refTime":"2024-09-29T09:00:00:Z","depth":0,"parameterNumber":2,"parameterNumberName":"U-component_of_WINDS"},"data":[0,0,0,0,0,0,0,0,0,0,0,0,0,0,0,0,0,0,0,0,0,0,0,0,0,0,0,0,0,0,0,0,0,0,0,0,0,0,0,0,0,0,0,0,0,0,0,0,0,0,0,0,0,0,0,0,0,0,0.9328,0.9328,0,0.9356,0.9356,0.9356,0.931,0.9309,0.9307,0.9305,0.9338,0.934,0.9342,0,0,0,0,0,0,0,0,0,0,0,0,0,0.9238,0.924,0.9328,0.9328,0.9328,0.9356,0.9356,0.9357,0.931,0.9309,0.9307,0.9305,0.9337,0.934,0.9343,0,0,0,0,0,0,0,0,0,0,0,0,0,0.9273,0.924,0.9328,0.9309,0.9307,0.9356,0.9356,0.9357,0.9311,0.9308,0.9306,0.9304,0.9336,0.934,0.9343,0.9412,0,0,0.9354,0.9355,0,0,0,0,0,0,0,0,0.9271,0.9276,0.9311,0.931,0.9308,0.9327,0.9336,0.9375,0.9311,0.931,0.9305,0.9303,0.9336,0.934,0.935,0.9414,0.9415,0.9354,0.9356,0.9358,0.9359,0,0,0,0,0,0,0,0.9268,0.9275,0.9339,0.9312,0.931,0.93,0.9302,0.9343,0.9336,0.931,0.9306,0.931,0.9335,0.9347,0.9351,0.9416,0.9354,0.9357,0.9359,0.9361,0.9539,0.9542,0,0,0,0,0,0,0.9268,0.9273,0.9338,0.934,0.9283,0.9303,0.9306,0.9324,0.9335,0.9335,0.9312,0.9308,0.9342,0.9347,0.9352,0.9434,0.9358,0.9361,0.9363,0.9537,0.954,0.9543,0,0,0,0,0,0,0.9266,0.9274,0.9337,0.9305,0.9313,0.9308,0.9328,0.9325,0.9337,0.9337,0.9336,0.9325,0.934,0.9347,0.9398,0.9435,0.9363,0.9366,0.9534,0.9538,0.9541,0.96,0,0,0,0,0,0,0.9264,0.9274,0.9299,0.9306,0.9314,0.9381,0.933,0.9328,0.9343,0.9337,0.9349,0.9349,0.9339,0.9393,0.9401,0.9438,0.9368,0.953,0.9535,0.954,0.9595,0.9606,0.9615,0,0,0,0,0,0.9261,0.9315,0.9301,0.9309,0.9346,0.9384,0.9388,0.9375,0.9346,0.9372,0.9372,0.9349,0.9429,0.9398,0.9407,0.9446,0.9528,0.9534,0.954,0.9591,0.9604,0.9615,0,0,0,0,0,0,0.9313,0.9316,0.93,0.9358,0.9371,0.9376,0.9408,0.9389,0.9411,0.9405,0.9389,0.9392,0.9447,0.9452,0.9417,0.9515,0.9474,0.9482,0.951,0.9522,0.9532,0.953,0.9371,0,0,0,0,0,0.9332,0.9361,0.9362,0.9413,0.942,0.9413,0.9429,0.9417,0.9431,0.9436,0.944,0.9455,0.9484,0.9503,0.953,0.9596,0.9598,0.9627,0.9637,0.9645,0.9653,0.9689,0.9702,0.9562,0.9562,0.9562,0,0,0.937,0.9375,0.9394,0.9424,0.9432,0.9464,0.9418,0.9454,0.9478,0.9442,0.949,0.9494,0.951,0.9569,0.9595,0.9574,0.9692,0.9653,0.9659,0.9662,0.9696,0.971,0.9722,0.9566,0.9565,0.9565,0,0,0.9456,0.9462,0.9506,0.9515,0.9529,0.9524,0.9535,0.9543,0.9543,0.9591,0.9566,0.9595,0.9644,0.9656,0.9669,0.9761,0.9741,0.977,0.9823,0.9859,0.987,0.9879,0.9913,0.9925,0.9778,0.9778,0.9778,0,0.9502,0.9548,0.9531,0.9568,0.9583,0.9551,0.9596,0.9607,0.9629,0.964,0.9617,0.9679,0.9687,0.9749,0.9771,0.9782,0.9795,0.9769,0.9869,0.9879,0.9888,0.992,0.9932,0.9781,0.9781,0.9781,0.978,0,0.9604,0.9637,0.9671,0.9692,0.971,0.9751,0.9742,0.9762,0.975,0.9748,0.9798,0.9807,0.9835,0.9849,0.9837,0.991,0.9896,0.9872,0.983,0.9905,0.9935,0.9947,0.9786,0.9785,0.9784,0.9783,0,0,0.9724,0.9735,0.9748,0.9758,0.9771,0.9796,0.9837,0.9863,0.9882,0.9898,0.9933,0.9976,0.9953,0.9968,0.9957,0.9988,1.0062,0.9959,0.996,0.9979,1.0144,1.0163,1.0178,1.0048,1.005,1.0052,1.0143,0,0.981,0.9878,0.9865,0.9932,0.9963,0.9934,0.9969,0.9982,0.9981,1.0008,1.0008,1.0039,1.0006,1.0015,1.0045,1.0047,1.0095,1.004,1.0081,1.0083,1.0079,1.0193,1.0213,1.0298,1.0154,1.0156,1.0158,0,0.9919,0.9939,1.0009,1.0018,1.003,1.0062,1.0086,1.0112,1.0126,1.0124,1.0141,1.0124,1.0166,1.0124,1.0183,1.0145,1.0162,1.0166,1.0169,1.0172,1.0125,1.0201,1.0325,1.0338,1.0176,1.0174,1.0173,0,1.0,1.0045,1.0093,1.0102,1.0113,1.0136,1.0143,1.0154,1.0172,1.0193,1.0204,1.0231,1.0245,1.0267,1.0259,1.0229,1.032,1.0276,1.032,1.032,1.0341,1.034,1.047,1.035,1.035,1.035,1.035,0,1.0098,1.0142,1.0129,1.0159,1.0208,1.0193,1.0243,1.0246,1.0257,1.0288,1.0265,1.0294,1.0281,1.0311,1.0305,1.0355,1.0362,1.0362,1.036,1.0365,1.0365,1.0375,1.037,1.0353,1.0353,1.0352,1.0351,0,1.0197,1.019,1.024,1.0247,1.025,1.0286,1.0292,1.0321,1.0319,1.0358,1.0367,1.0364,1.0398,1.0392,1.0429,1.0425,1.0488,1.0478,1.0483,1.0481,1.0525,1.0521,1.0668,1.0687,1.0554,1.0555,1.0556,0,1.026,1.0293,1.0304,1.0322,1.033,1.036,1.0377,1.0364,1.0383,1.0403,1.0429,1.046,1.0485,1.054,1.0542,1.0571,1.0563,1.0612,1.0567,1.0571,1.0564,1.0563,1.0567,1.0621,1.0623,1.0624,1.0625,0,1.0373,1.0368,1.0393,1.0417,1.0438,1.0457,1.0474,1.0491,1.0479,1.0503,1.0536,1.0555,1.0593,1.0625,1.0652,1.0659,1.0641,1.0639,1.0651,1.0656,1.0657,1.0658,1.0508,1.0636,1.0635,1.0634,1.0633,1.0633,1.0456,1.0485,1.0497,1.0526,1.0537,1.0553,1.0581,1.0582,1.0609,1.0638,1.0629,1.0668,1.0683,1.0717,1.0728,1.0759,1.0741,1.0758,1.0762,1.0767,1.0773,1.0652,1.0764,1.0764,1.0763,1.0763,1.0763,0,1.0569,1.0575,1.0602,1.0626,1.0649,1.0628,1.0646,1.0668,1.0701,1.0716,1.0741,1.078,1.0811,1.0816,1.0846,1.087,1.0862,1.0878,1.0877,1.0879,1.0787,1.0774,1.0884,1.0884,1.0884,1.0884,1.0884,1.0884,1.063,1.0678,1.0674,1.0728,1.0734,1.0771,1.0783,1.0798,1.081,1.0855,1.088,1.0883,1.0894,1.0925,1.0953,1.0954,1.0967,1.0986,1.0984,1.0898,1.0886,1.0874,1.0862,1.0989,1.0989,1.1074,1.1075,1.1076]},{"header":{"parameterUnit":"m.s-1","parameterCategory":1,"la1":30.2991,"la2":30.254,"lo1":-89.0895,"lo2":-89.0444,"dy":0.0017,"dx":0.0017,"nx":28,"ny":28,"refTime":"2024-09-29T09:00:00:Z","depth":0,"parameterNumber":3,"parameterNumberName":"V-component_of_WINDS"},"data":[0,0,0,0,0,0,0,0,0,0,0,0,0,0,0,0,0,0,0,0,0,0,0,0,0,0,0,0,0,0,0,0,0,0,0,0,0,0,0,0,0,0,0,0,0,0,0,0,0,0,0,0,0,0,0,0,0,0,-0.5694,-0.5694,0,-0.5706,-0.5707,-0.5707,-0.5731,-0.5732,-0.5732,-0.5733,-0.5744,-0.5744,-0.5744,0,0,0,0,0,0,0,0,0,0,0,0,0,-0.569,-0.569,-0.5694,-0.5694,-0.5694,-0.5706,-0.5707,-0.5707,-0.5731,-0.5732,-0.5732,-0.5733,-0.5744,-0.5744,-0.5744,0,0,0,0,0,0,0,0,0,0,0,0,0,-0.5696,-0.569,-0.5694,-0.5708,-0.5709,-0.5706,-0.5707,-0.5707,-0.5731,-0.5732,-0.5733,-0.5733,-0.5744,-0.5744,-0.5744,-0.5728,0,0,-0.5743,-0.5743,0,0,0,0,0,0,0,0,-0.5696,-0.5696,-0.5706,-0.5707,-0.5709,-0.5718,-0.5709,-0.5714,-0.5731,-0.5723,-0.5733,-0.5734,-0.5735,-0.5736,-0.5736,-0.5728,-0.5729,-0.5743,-0.5743,-0.5743,-0.5743,0,0,0,0,0,0,0,-0.5695,-0.5696,-0.5699,-0.5706,-0.5708,-0.5713,-0.5715,-0.571,-0.5725,-0.5724,-0.5725,-0.5727,-0.5736,-0.5736,-0.5737,-0.5729,-0.5743,-0.5743,-0.5743,-0.5743,-0.5708,-0.5707,0,0,0,0,0,0,-0.5693,-0.5695,-0.5699,-0.5699,-0.5704,-0.5713,-0.5715,-0.5714,-0.5725,-0.5727,-0.5726,-0.5728,-0.5736,-0.5737,-0.5737,-0.5718,-0.5743,-0.5743,-0.5743,-0.5709,-0.5708,-0.5707,0,0,0,0,0,0,-0.5693,-0.5693,-0.5698,-0.5698,-0.5699,-0.5712,-0.5711,-0.5714,-0.5715,-0.5727,-0.5729,-0.5724,-0.5737,-0.5737,-0.573,-0.5719,-0.5743,-0.5743,-0.571,-0.5708,-0.5707,-0.568,0,0,0,0,0,0,-0.5692,-0.5693,-0.5687,-0.5697,-0.5699,-0.5691,-0.5711,-0.5714,-0.5714,-0.5717,-0.5725,-0.5727,-0.5738,-0.573,-0.573,-0.5719,-0.5742,-0.5711,-0.5709,-0.5708,-0.5682,-0.5679,-0.5675,0,0,0,0,0,-0.5692,-0.5679,-0.5687,-0.5687,-0.5692,-0.569,-0.5691,-0.5703,-0.5714,-0.5708,-0.5715,-0.5727,-0.572,-0.5729,-0.5729,-0.5718,-0.5711,-0.5709,-0.5708,-0.5684,-0.5679,-0.5675,0,0,0,0,0,0,-0.5667,-0.5681,-0.5689,-0.5679,-0.5683,-0.5694,-0.5687,-0.5698,-0.5699,-0.5701,-0.5716,-0.5718,-0.5708,-0.5712,-0.5722,-0.5703,-0.5718,-0.5716,-0.57,-0.5695,-0.5692,-0.569,-0.5742,0,0,0,0,0,-0.566,-0.5658,-0.567,-0.566,-0.5662,-0.5674,-0.5674,-0.5683,-0.5688,-0.5689,-0.5696,-0.57,-0.5699,-0.5698,-0.5697,-0.5684,-0.5685,-0.5676,-0.5672,-0.5669,-0.5667,-0.5659,-0.5655,-0.5701,-0.5701,-0.5701,0,0,-0.5646,-0.5653,-0.5651,-0.5655,-0.5659,-0.5656,-0.5675,-0.5671,-0.5669,-0.5689,-0.5682,-0.5687,-0.5692,-0.5681,-0.5677,-0.5685,-0.5655,-0.5667,-0.5665,-0.5664,-0.5657,-0.5652,-0.5648,-0.57,-0.57,-0.57,0,0,-0.5618,-0.5624,-0.5616,-0.562,-0.5626,-0.5635,-0.5633,-0.5642,-0.5646,-0.564,-0.5654,-0.5651,-0.5649,-0.5652,-0.5653,-0.5626,-0.5637,-0.5625,-0.5606,-0.5598,-0.5595,-0.5591,-0.5581,-0.5577,-0.5623,-0.5623,-0.5623,0,-0.56,-0.5596,-0.561,-0.5605,-0.5606,-0.5624,-0.5615,-0.5618,-0.5624,-0.5624,-0.5633,-0.563,-0.5635,-0.5624,-0.5617,-0.5618,-0.5616,-0.5624,-0.5594,-0.5591,-0.5588,-0.5578,-0.5574,-0.5622,-0.5622,-0.5622,-0.5622,0,-0.5572,-0.5569,-0.5562,-0.5567,-0.5567,-0.556,-0.5573,-0.5571,-0.558,-0.5587,-0.558,-0.5586,-0.5587,-0.5585,-0.5594,-0.5576,-0.558,-0.5592,-0.5607,-0.5582,-0.5573,-0.5569,-0.562,-0.562,-0.5621,-0.5621,0,0,-0.5529,-0.5542,-0.5538,-0.5541,-0.5549,-0.5546,-0.554,-0.5541,-0.5539,-0.5542,-0.5536,-0.5534,-0.5544,-0.5545,-0.5555,-0.5548,-0.5524,-0.556,-0.556,-0.5552,-0.5503,-0.5494,-0.5489,-0.5532,-0.5532,-0.5531,-0.5502,0,-0.5502,-0.5492,-0.5504,-0.5491,-0.5488,-0.5505,-0.55,-0.5504,-0.551,-0.5508,-0.5515,-0.5513,-0.5527,-0.5528,-0.5522,-0.5529,-0.5515,-0.5531,-0.5526,-0.5525,-0.5523,-0.5484,-0.5474,-0.5447,-0.5499,-0.5498,-0.5498,0,-0.5469,-0.5471,-0.5458,-0.5466,-0.5465,-0.546,-0.5461,-0.5459,-0.5464,-0.5469,-0.547,-0.5481,-0.5475,-0.5491,-0.5481,-0.5492,-0.5491,-0.5494,-0.5493,-0.5492,-0.5509,-0.5481,-0.5439,-0.5434,-0.5492,-0.5493,-0.5493,0,-0.5437,-0.5436,-0.5428,-0.5429,-0.5439,-0.5435,-0.5439,-0.5444,-0.5444,-0.5445,-0.5445,-0.5445,-0.5445,-0.5444,-0.5455,-0.5466,-0.5444,-0.5461,-0.5447,-0.5447,-0.5441,-0.5441,-0.5396,-0.5442,-0.5442,-0.5442,-0.5442,0,-0.5405,-0.5396,-0.5413,-0.5408,-0.5398,-0.5412,-0.5402,-0.5407,-0.5412,-0.5407,-0.5423,-0.5418,-0.5433,-0.543,-0.5438,-0.5429,-0.5429,-0.5432,-0.5434,-0.543,-0.5429,-0.5428,-0.543,-0.5441,-0.5441,-0.5442,-0.5442,0,-0.5367,-0.5379,-0.537,-0.5381,-0.5383,-0.5375,-0.5383,-0.5378,-0.5386,-0.538,-0.5379,-0.5391,-0.5388,-0.5399,-0.5398,-0.5403,-0.5388,-0.5394,-0.5387,-0.5388,-0.5373,-0.5374,-0.5325,-0.5319,-0.537,-0.537,-0.5369,0,-0.5346,-0.5339,-0.5348,-0.5346,-0.535,-0.5347,-0.5346,-0.536,-0.5359,-0.5363,-0.5357,-0.5356,-0.5355,-0.5349,-0.5357,-0.5356,-0.5361,-0.5344,-0.5361,-0.5356,-0.5359,-0.5359,-0.5358,-0.534,-0.534,-0.5339,-0.5339,0,-0.5306,-0.5311,-0.531,-0.5311,-0.531,-0.5311,-0.5313,-0.5311,-0.5326,-0.5323,-0.532,-0.532,-0.5318,-0.5316,-0.5316,-0.532,-0.5331,-0.5333,-0.533,-0.5325,-0.532,-0.5321,-0.5376,-0.5334,-0.5335,-0.5335,-0.5335,-0.5335,-0.5274,-0.5269,-0.5274,-0.5272,-0.5275,-0.5277,-0.5272,-0.5279,-0.5277,-0.5277,-0.5286,-0.5281,-0.5285,-0.5287,-0.5289,-0.5285,-0.5293,-0.5288,-0.5286,-0.5285,-0.5281,-0.5322,-0.5285,-0.5285,-0.5285,-0.5286,-0.5286,0,-0.5234,-0.5238,-0.5236,-0.5239,-0.5237,-0.5249,-0.5251,-0.5249,-0.5244,-0.5248,-0.5246,-0.5243,-0.524,-0.5248,-0.5247,-0.5242,-0.5247,-0.5241,-0.524,-0.5241,-0.5275,-0.5278,-0.5237,-0.5237,-0.5237,-0.5237,-0.5237,-0.5237,-0.5213,-0.5203,-0.521,-0.5202,-0.5206,-0.5202,-0.5202,-0.5203,-0.5206,-0.5201,-0.5199,-0.5204,-0.5209,-0.5208,-0.5206,-0.5208,-0.5206,-0.5198,-0.5202,-0.5234,-0.5239,-0.5243,-0.5245,-0.5198,-0.5198,-0.5168,-0.5167,-0.5167]}]]